sat.trackr.live / text

‹ back to catalog

STARLINK-37732

NORAD 69307 · 2026-119M

PAYLOAD ACTIVE UNKNOWN

§ Identity

Operator
Country
US
Launch date
2026-05-30
Launch site
AFWTR
Launch vehicle
Mass (kg)
RCS (m²)

Purposes: comms

External: N2YO · Heavens-Above · Gunter

§ Orbital elements

Epoch: 2026-09-20T01:03:09.275040Z

Period
93.91 min
Inclination
97.2841°
Eccentricity
0.0000537
Mean motion
15.33435395 rev/d
Perigee alt
465.2 km
Apogee alt
465.9 km
Semi-major
6,843.7 km
B*
6.7834e-4
RAAN
287.7878°
Arg perigee
99.8301°
Mean anomaly
260.3003°
Rev number
1,859

§ Raw data

STARLINK-377321 69307U 26119M   26263.04385735  .00021881  00000+0  67834-3 0  99982 69307  97.2841 287.7878 0000537  99.8301 260.3003 15.33435395 18598

JSON: /api/v1/satellites/69307 · /tle

For live sub-satellite position, see the globe view (requires WebGL).

§ Visibility from observer

Set your observer location to see the next 7 days of passes ≥ 10°. The values pass through the URL so the page stays shareable.

No JS? Fill the form by hand. The geolocation button needs JavaScript.